Little Rock, AR

6:20 AM CDT on June 27, 2017 (GMT -0500)
Adams

Weather History for KLIT - January, 2014

Change the Weather History Date:

Tuesday, January 14, 2014

  Actual Average Record
Temperature  
Mean Temperature 50 °F 41 °F  
Max Temperature 64 °F 49 °F 72 °F (1996)
Min Temperature 35 °F 33 °F 10 °F (1979)
Degree Days  
Heating Degree Days 15 24  
Month to date heating degree days 384 336  
Since 1 July heating degree days 1654 1528  
Cooling Degree Days 0 0  
Month to date cooling degree days 0 0  
Year to date cooling degree days 0 0  
Moisture  
Dew Point 28 °F    
Average Humidity 51    
Maximum Humidity 82    
Minimum Humidity 19    
Precipitation  
Precipitation 0.00 in 0.10 in 1.52 in (2007)
Month to date precipitation 2.34 1.62  
Year to date precipitation 2.34 1.62  
Snow  
Snow 0.00 in 0.00 in 0.30 in (1978)
Month to date snowfall T 0.6  
Since 1 July snowfall 1.3 1.1  
Snow Depth 0.00 in    
Sea Level Pressure  
Sea Level Pressure 30.05 in    
Wind  
Wind Speed 10 mph (WNW)    
Max Wind Speed 23 mph    
Max Gust Speed 30 mph    
Visibility 10 miles    
Events      
T = Trace of Precipitation, MM = Missing Value Source: NWS Daily Summary

Daily Weather History Graph

Daily Weather History Graph

Search for Another Location

Airport or City:

Trip Planner

Search our weather history database for the weather conditions in past years. The results will help you decide how hot, cold, wet, or windy it might be!

Date:

Astronomy

Jan. 14, 2014 Rise Set
Actual Time 7:16 AM CST 5:20 PM CST
Civil Twilight 6:48 AM CST 5:47 PM CST
Nautical Twilight 6:17 AM CST 6:18 PM CST
Astronomical Twilight 5:47 AM CST 6:49 PM CST
Moon 4:24 PM CST (1/14) 5:51 AM CST (1/14)
Length of Visible Light 10h 59m
Length of Day
10h 04m
Waxing Gibbous, 98% of the Moon is Illuminated
Jan 14
Waxing Gibbous
Jan 15
Full
Jan 23
Last Quarter
Jan 30
New
Feb 6
First Quarter

Hourly Weather History & Observations

Time (CST) Temp. Windchill Dew Point Humidity Pressure Visibility Wind Dir Wind Speed Gust Speed Precip Events Conditions
12:53 AM 42.1 °F 36.6 °F 33.1 °F 70% 30.00 in 10.0 mi WSW 9.2 mph - N/A   Clear
1:53 AM 41.0 °F 36.4 °F 32.0 °F 70% 30.00 in 10.0 mi WSW 6.9 mph - N/A   Clear
2:53 AM 41.0 °F 35.8 °F 32.0 °F 70% 29.99 in 10.0 mi WSW 8.1 mph - N/A   Clear
3:53 AM 39.0 °F 34.0 °F 30.9 °F 73% 29.99 in 10.0 mi WSW 6.9 mph - N/A   Clear
4:53 AM 37.0 °F 31.6 °F 30.9 °F 79% 29.98 in 10.0 mi WSW 6.9 mph - N/A   Clear
5:53 AM 36.0 °F 30.3 °F 30.9 °F 82% 29.99 in 10.0 mi WSW 6.9 mph - N/A   Clear
6:53 AM 36.0 °F 32.1 °F 30.9 °F 82% 29.99 in 10.0 mi WSW 4.6 mph - N/A   Scattered Clouds
7:53 AM 37.0 °F 32.4 °F 30.9 °F 79% 29.99 in 10.0 mi WSW 5.8 mph - N/A   Scattered Clouds
8:53 AM 43.0 °F 39.5 °F 32.0 °F 65% 29.99 in 10.0 mi WSW 5.8 mph - N/A   Scattered Clouds
9:53 AM 52.0 °F - 27.0 °F 38% 30.01 in 10.0 mi WSW 12.7 mph - N/A   Mostly Cloudy
10:53 AM 55.9 °F - 25.0 °F 30% 29.99 in 10.0 mi WSW 15.0 mph 24.2 mph N/A   Mostly Cloudy
11:53 AM 59.0 °F - 27.0 °F 29% 29.98 in 10.0 mi WSW 10.4 mph - N/A   Mostly Cloudy
12:53 PM 64.0 °F - 21.9 °F 20% 29.96 in 10.0 mi NW 13.8 mph 18.4 mph N/A   Scattered Clouds
1:53 PM 62.1 °F - 25.0 °F 24% 29.97 in 10.0 mi NW 12.7 mph - N/A   Mostly Cloudy
2:53 PM 60.1 °F - 28.0 °F 30% 30.01 in 10.0 mi NW 11.5 mph 21.9 mph N/A   Mostly Cloudy
3:53 PM 57.0 °F - 30.0 °F 36% 30.04 in 10.0 mi NW 13.8 mph 25.3 mph N/A   Mostly Cloudy
4:53 PM 54.0 °F - 35.1 °F 49% 30.08 in 10.0 mi NW 12.7 mph 21.9 mph N/A   Overcast
5:53 PM 57.9 °F - 35.1 °F 42% 30.09 in 10.0 mi WNW 10.4 mph - N/A   Mostly Cloudy
6:53 PM 53.1 °F - 28.9 °F 40% 30.14 in 10.0 mi NNW 11.5 mph - N/A   Mostly Cloudy
7:53 PM 57.0 °F - 25.0 °F 29% 30.17 in 10.0 mi NW 9.2 mph - N/A   Mostly Cloudy
8:53 PM 54.0 °F - 19.9 °F 26% 30.18 in 10.0 mi NNW 8.1 mph - N/A   Mostly Cloudy
9:53 PM 52.0 °F - 19.9 °F 28% 30.20 in 10.0 mi NNW 8.1 mph - N/A   Mostly Cloudy
10:53 PM 48.0 °F - 19.0 °F 32% 30.20 in 10.0 mi NW 6.9 mph - N/A   Partly Cloudy
11:53 PM 48.9 °F - 18.0 °F 29% 30.20 in 10.0 mi NW 12.7 mph - N/A   Mostly Cloudy